Location: Bethera
(33.2010°N, 79.7880°W)
Time: 11:20:00
(UTC-05:00)

Amateur Radio Satellites - All Passes

Search period start: 18 December 2014 10:49
Search period end: 19 December 2014 10:49
Location: Bethera, 33.2010°N, 79.7880°W

Satellite Date Start Highest point End Downlink Frequencies (MHz)
Time Altitude Azimuth
DX 1 18 Dec 10:49:46 10:53:39 33° 288° (WNW) 10:57:32 434.975-435.025
COMPASS 1 18 Dec 10:51:06 10:51:47 10° 294° (WNW) 10:52:28 437.405
UNISAT 6 18 Dec 10:52:09 10:56:07 35° 262° (W) 11:00:10 437.425
CUBEBUG 1 18 Dec 10:54:16 10:57:54 26° 97° (E) 11:01:31 437.445
POPSAT HIP 1 18 Dec 10:55:28 10:59:32 50° 260° (W) 11:03:38 437.405
CINEMA 3 18 Dec 11:18:39 11:21:06 14° 292° (WNW) 11:23:36 145.822/145.860
CUBEBUG 2 18 Dec 11:18:42 11:22:09 21° 290° (WNW) 11:25:40 437.445
Oscar 11 18 Dec 11:18:55 11:20:41 12° 293° (WNW) 11:22:27 145.826/435.025
HO-68 18 Dec 11:19:10 11:22:19 13° 303° (WNW) 11:25:27 435.675
DELFI C3 18 Dec 11:22:55 11:24:22 12° 293° (WNW) 11:25:49 145.870
50 SAT 18 Dec 11:23:29 11:27:28 48° 285° (WNW) 11:31:28 437.505
UKube-1 18 Dec 11:25:07 11:27:26 14° 293° (WNW) 11:29:45 .
HUMSAT D 18 Dec 11:25:11 11:29:11 37° 287° (WNW) 11:33:11 437.325/437.525
ANTELSAT 18 Dec 11:25:28 11:28:00 15° 267° (W) 11:30:33 437.575/2403.000
ESTCUBE 1 18 Dec 11:25:31 11:30:00 68° 101° (ESE) 11:34:26 437.505/2401.250
DUCHIFAT 1 18 Dec 11:25:47 11:29:03 22° 264° (W) 11:32:19 145.980
VELOX 1 18 Dec 11:33:02 11:37:03 35° 288° (WNW) 11:41:03 145.980
BUGSAT 1 18 Dec 11:38:01 11:40:58 19° 264° (W) 11:43:55 437.445
QB50P2 18 Dec 11:38:13 11:40:46 16° 266° (W) 11:43:19 145.880/145.840
ZACube-1 18 Dec 11:41:26 11:44:12 16° 292° (WNW) 11:46:59 437.345
PHONESAT 2.4 18 Dec 11:43:56 11:45:21 12° 220° (SW) 11:46:46 2401.200-2431.200
POLYITAN 1 18 Dec 11:46:55 11:48:42 12° 267° (W) 11:50:29 437.675
RS-15 18 Dec 11:48:43 11:59:29 63° 112° (ESE) 12:10:09 29.354- 29.394
NANOSAT C BR1 18 Dec 11:52:13 11:53:21 11° 267° (W) 11:54:28 145.865
JUGNU 18 Dec 12:02:19 12:05:04 13° 165° (SSE) 12:07:48 437.505
O/OREOS (USA 219) 18 Dec 12:12:00 12:16:02 33° 256° (WSW) 12:20:05 437.305
SPROUT 18 Dec 12:12:25 12:16:33 46° 100° (E) 12:20:41 437.525
AISAT 18 Dec 12:16:43 12:18:23 12° 294° (WNW) 12:20:03 437.250
TISAT 1 18 Dec 12:17:37 12:21:47 59° 101° (E) 12:25:57 437.305
CUBEBUG 1 18 Dec 12:30:50 12:34:06 21° 290° (WNW) 12:37:21 437.445
YUBILEINY 18 Dec 12:35:13 12:43:19 46° 271° (W) 12:51:25 435.215
BEESAT 3 18 Dec 12:44:15 12:46:21 14° 108° (ESE) 12:48:29 437.485
PCSat 18 Dec 12:50:16 12:51:58 11° 102° (ESE) 12:53:40 145.827
Oscar 19 18 Dec 12:52:11 12:57:12 59° 74° (ENE) 13:02:16 437.125/150
SRMSAT 18 Dec 13:02:32 13:03:35 10° 163° (SSE) 13:04:38 437.500
ITAMSAT 1 18 Dec 13:03:07 13:07:23 27° 69° (ENE) 13:11:39 435.822/435.867
BEESAT 2 18 Dec 13:19:59 13:23:39 33° 113° (ESE) 13:27:24 435.950
M-CUBED/EXP-1 PRIME 18 Dec 13:26:18 13:28:49 15° 97° (E) 13:31:12 437.505
ITUPSAT 1 18 Dec 13:28:53 13:33:29 47° 100° (E) 13:38:02 437.325
SWISSCUBE 18 Dec 13:29:26 13:34:05 53° 100° (E) 13:38:43 437.505
JUGNU 18 Dec 13:49:05 13:53:26 21° 174° (S) 13:57:46 437.505
SPROUT 18 Dec 13:50:27 13:52:12 12° 293° (WNW) 13:53:56 437.525
BEESAT 18 Dec 13:54:54 13:59:41 86° 284° (WNW) 14:04:26 436.000
ISS 18 Dec 13:56:23 13:59:39 66° 134° (SE) 14:02:55 145.825
RS-15 18 Dec 14:02:47 14:12:22 34° 313° (NW) 14:22:03 29.354- 29.394
KKS-1 18 Dec 14:03:13 14:06:32 20° 96° (E) 14:09:50 437.445
AO-7 18 Dec 14:04:27 14:09:54 20° 57° (ENE) 14:15:20 29.400- 29.500
STARS 18 Dec 14:05:58 14:08:12 14° 94° (E) 14:10:25 437.465
AIST 2 18 Dec 14:12:23 14:16:31 61° 116° (ESE) 14:20:45 435.215
BEESAT 3 18 Dec 14:20:19 14:24:09 39° 302° (WNW) 14:28:03 437.485
Gurwin Techsat 1B 18 Dec 14:21:44 14:27:03 85° 257° (WSW) 14:32:23 435.225
HORYU 2 18 Dec 14:26:21 14:30:27 38° 72° (ENE) 14:34:35 437.375
PCSat 18 Dec 14:29:17 14:34:40 71° 296° (WNW) 14:40:06 145.827
Oscar 19 18 Dec 14:34:41 14:36:51 13° 268° (W) 14:39:01 437.125/150
AUBIESAT-1 18 Dec 14:35:56 14:40:16 76° 288° (WNW) 14:44:11 437.475
ITAMSAT 1 18 Dec 14:42:12 14:46:42 30° 263° (W) 14:51:13 435.822/435.867
SRMSAT 18 Dec 14:48:00 14:52:05 19° 172° (S) 14:56:08 437.500
BEESAT 2 18 Dec 14:59:06 15:01:58 18° 308° (NW) 15:04:53 435.950
M-CUBED/EXP-1 PRIME 18 Dec 15:00:01 15:03:59 34° 293° (WNW) 15:07:37 437.505
ITUPSAT 1 18 Dec 15:08:16 15:10:56 15° 294° (WNW) 15:13:35 437.325
SWISSCUBE 18 Dec 15:09:13 15:11:26 13° 295° (WNW) 15:13:39 437.505
ISS 18 Dec 15:34:53 15:36:32 13° 330° (NNW) 15:38:11 145.825
JUGNU 18 Dec 15:37:28 15:41:51 21° 185° (S) 15:46:12 437.505
KKS-1 18 Dec 15:39:17 15:43:08 29° 289° (WNW) 15:46:59 437.445
JAS-2 18 Dec 15:39:29 15:45:59 31° 68° (ENE) 15:52:07 435.910
STARS 18 Dec 15:40:38 15:44:48 42° 287° (WNW) 15:48:59 437.465
AO-7 18 Dec 15:53:22 16:01:40 82° 254° (WSW) 16:10:04 29.400- 29.500
AIST 2 18 Dec 15:53:54 15:55:32 12° 312° (NW) 15:57:11 435.215
AIST 1 18 Dec 15:59:42 16:02:39 18° 88° (E) 16:05:36
HORYU 2 18 Dec 16:04:36 16:07:13 15° 266° (W) 16:09:51 437.375
RS-15 18 Dec 16:27:49 16:29:45 11° 346° (NNW) 16:31:40 29.354- 29.394
MOZHAYETS 4 18 Dec 16:31:14 16:35:04 26° 96° (E) 16:38:52
GONETS M04 18 Dec 16:33:09 16:41:13 39° 76° (ENE) 16:49:10
SRMSAT 18 Dec 16:36:11 16:40:38 22° 182° (S) 16:45:03 437.500
Cubesat XI-IV 18 Dec 17:18:25 17:23:17 37° 71° (ENE) 17:28:10 437.490
JAS-2 18 Dec 17:23:12 17:30:40 48° 261° (W) 17:37:43 435.910
JUGNU 18 Dec 17:27:15 17:30:12 14° 194° (SSW) 17:33:08 437.505
AIST 1 18 Dec 17:36:14 17:40:03 29° 281° (WNW) 17:43:51
CUBESAT XI-V 18 Dec 17:49:56 17:51:02 11° 92° (E) 17:52:09 437.345
CUTE-I 18 Dec 17:51:51 17:57:10 80° 76° (ENE) 18:02:30 437.470
AO-7 18 Dec 17:52:33 17:55:23 12° 269° (W) 17:58:14 29.400- 29.500
PRISM 18 Dec 18:07:11 18:11:06 40° 99° (E) 18:14:58 437.425
MOZHAYETS 4 18 Dec 18:08:26 18:12:09 25° 290° (WNW) 18:15:51
SRMSAT 18 Dec 18:25:34 18:29:10 17° 192° (SSW) 18:32:44 437.500
GONETS M04 18 Dec 18:30:03 18:37:51 38° 273° (W) 18:45:35
STRAND 1 18 Dec 18:39:14 18:43:55 36° 99° (E) 18:48:34 437.568
RS-15 18 Dec 18:44:18 18:49:45 14° 26° (NNE) 18:55:17 29.354- 29.394
MaSat-1 18 Dec 18:51:49 18:53:56 25° 65° (ENE) 18:56:10 437.345
Cubesat XI-IV 18 Dec 18:59:22 19:03:25 22° 264° (W) 19:07:28 437.490
CUBESAT XI-V 18 Dec 19:24:16 19:28:45 55° 285° (WNW) 19:33:13 437.345
CANX-2 18 Dec 19:33:13 19:35:52 16° 69° (ENE) 19:38:33 2200.000
DANDE 18 Dec 19:42:51 19:48:03 19° 71° (ENE) 19:53:36 436.750
PRISM 18 Dec 19:44:16 19:46:14 13° 293° (WNW) 19:48:11 437.425
HO-68 18 Dec 19:52:14 19:59:01 47° 69° (ENE) 20:05:49 435.675
DOVE 4 18 Dec 19:58:14 20:00:34 15° 68° (ENE) 20:02:54 437.250
COMPASS 1 18 Dec 20:00:44 20:03:59 22° 71° (ENE) 20:07:16 437.405
SEEDS 18 Dec 20:02:47 20:06:24 28° 72° (ENE) 20:10:03 437.485
CUTE 1.7 + AOD 2 18 Dec 20:03:01 20:06:50 33° 73° (ENE) 20:10:41 437.475
STRAND 1 18 Dec 20:19:02 20:22:49 21° 292° (WNW) 20:26:35 437.568
BRITE-PL 18 Dec 20:20:36 20:24:48 60° 76° (ENE) 20:28:54 437.365/2234.400
ISS 18 Dec 20:29:04 20:30:47 14° 31° (NNE) 20:32:31 145.825
DELFI C3 18 Dec 20:31:18 20:33:58 17° 69° (ENE) 20:36:39 145.870
Oscar 11 18 Dec 20:32:12 20:35:34 22° 70° (ENE) 20:38:56 145.826/435.025
CUBEBUG 2 18 Dec 20:37:48 20:40:08 15° 68° (ENE) 20:42:29 437.445
CINEMA 3 18 Dec 20:38:41 20:42:07 26° 71° (ENE) 20:45:34 145.822/145.860
UKube-1 18 Dec 20:39:26 20:42:41 21° 69° (ENE) 20:45:56 .
CUSAT 1 18 Dec 20:43:13 20:50:56 60° 80° (E) 20:59:20 437.405
RS-15 18 Dec 20:54:52 21:05:47 50° 54° (NE) 21:17:06 29.354- 29.394
ZACube-1 18 Dec 20:57:25 21:00:14 18° 69° (ENE) 21:03:06 437.345
GOMX 1 18 Dec 20:58:24 21:02:34 66° 259° (W) 21:06:41 467.674
AAUSAT CUBESAT 2 18 Dec 21:01:29 21:05:40 73° 259° (WSW) 21:09:53 437.432
CANX-2 18 Dec 21:07:39 21:11:30 33° 262° (W) 21:15:23 2200.000
UWE-3 18 Dec 21:18:50 21:22:41 39° 73° (ENE) 21:26:37 435.000/436.395/437.385
FUNcube-1 18 Dec 21:23:42 21:27:30 36° 73° (ENE) 21:31:23 145.935
DANDE 18 Dec 21:24:10 21:31:58 84° 264° (W) 21:40:42 436.750
AISAT 18 Dec 21:32:32 21:36:18 28° 71° (ENE) 21:40:03 437.250
DOVE 4 18 Dec 21:34:18 21:38:03 33° 262° (W) 21:41:48 437.250
COMPASS 1 18 Dec 21:36:11 21:39:33 24° 264° (W) 21:42:58 437.405
SO-50 18 Dec 21:39:06 21:43:34 73° 299° (WNW) 21:48:12 436.795
SEEDS 18 Dec 21:39:14 21:42:12 19° 265° (W) 21:45:11 437.485
CUTE 1.7 + AOD 2 18 Dec 21:40:14 21:42:48 16° 266° (W) 21:45:24 437.475
DX 1 18 Dec 21:40:47 21:45:06 67° 258° (WSW) 21:49:26 434.975-435.025
HO-68 18 Dec 21:40:55 21:46:49 28° 263° (W) 21:52:46 435.675
ANTELSAT 18 Dec 21:45:34 21:47:16 12° 92° (E) 21:48:58 437.575/2403.000
CUBEBUG 1 18 Dec 21:48:05 21:50:22 14° 67° (ENE) 21:52:38 437.445
ISS 18 Dec 22:04:25 22:07:39 61° 226° (SW) 22:10:51 145.825
DELFI C3 18 Dec 22:05:23 22:08:59 29° 263° (W) 22:12:36 145.870
NANOSAT C BR1 18 Dec 22:05:39 22:06:29 11° 93° (E) 22:07:18 145.865
50 SAT 18 Dec 22:07:34 22:11:29 57° 75° (ENE) 22:15:26 437.505
Oscar 11 18 Dec 22:08:03 22:11:35 25° 264° (W) 22:15:08 145.826/435.025
CUBEBUG 2 18 Dec 22:12:43 22:16:30 34° 262° (W) 22:20:21 437.445
HUMSAT D 18 Dec 22:13:00 22:17:06 88° 77° (ENE) 22:21:16 437.325/437.525
UKube-1 18 Dec 22:15:00 22:18:39 26° 263° (W) 22:22:19 .
CINEMA 3 18 Dec 22:16:21 22:19:17 19° 265° (W) 22:22:16 145.822/145.860
QB50P1 18 Dec 22:18:00 22:20:38 16° 95° (E) 22:23:15 145.935-145.965
TIGRISAT 18 Dec 22:20:20 22:24:28 30° 97° (E) 22:28:35 435.000
ESTCUBE 1 18 Dec 22:21:18 22:25:29 37° 73° (ENE) 22:29:40 437.505/2401.250
VELOX 1 18 Dec 22:26:19 22:30:43 67° 259° (WSW) 22:35:07 145.980
CUSAT 1 18 Dec 22:27:17 22:33:37 27° 272° (W) 22:40:20 437.405
ZACube-1 18 Dec 22:32:48 22:36:23 28° 263° (W) 22:40:01 437.345
AIST 2 18 Dec 22:39:56 22:42:04 13° 49° (NE) 22:44:12 435.215
BEESAT 3 18 Dec 22:43:57 22:47:44 33° 57° (ENE) 22:51:28 437.485
POPSAT HIP 1 18 Dec 22:45:19 22:49:13 34° 98° (E) 22:53:07 437.405
UNISAT 6 18 Dec 22:47:54 22:52:35 64° 101° (E) 22:57:16 437.425
UWE-3 18 Dec 22:57:38 22:59:24 12° 267° (W) 23:01:11 435.000/436.395/437.385
FUNcube-1 18 Dec 23:01:57 23:03:59 13° 267° (W) 23:06:02 145.935
SPROUT 18 Dec 23:03:27 23:06:42 22° 70° (ENE) 23:09:57 437.525
TISAT 1 18 Dec 23:06:45 23:10:13 25° 71° (ENE) 23:13:41 437.305
RS-15 18 Dec 23:07:30 23:17:56 43° 252° (WSW) 23:28:48 29.354- 29.394
AISAT 18 Dec 23:09:34 23:12:52 21° 264° (W) 23:16:10 437.250
DANDE 18 Dec 23:10:42 23:14:40 15° 276° (W) 23:18:50 436.750
DUCHIFAT 1 18 Dec 23:14:07 23:18:22 81° 102° (ESE) 23:22:38 145.980
ANTELSAT 18 Dec 23:19:41 23:24:18 55° 285° (WNW) 23:28:54 437.575/2403.000
BEESAT 2 18 Dec 23:21:36 23:25:48 81° 62° (ENE) 23:29:55 435.950
PCSat 18 Dec 23:21:41 23:26:42 37° 59° (ENE) 23:31:41 145.827
CUBEBUG 1 18 Dec 23:22:12 23:26:21 42° 261° (W) 23:30:29 437.445
BUGSAT 1 18 Dec 23:23:24 23:27:28 84° 103° (ESE) 23:31:33 437.445
QB50P2 18 Dec 23:26:10 23:30:25 69° 284° (WNW) 23:34:40 145.880/145.840
YUBILEINY 18 Dec 23:34:08 23:42:13 43° 88° (E) 23:50:15 435.215
POLYITAN 1 18 Dec 23:34:17 23:38:29 55° 285° (WNW) 23:42:40 437.675
NANOSAT C BR1 18 Dec 23:38:28 23:42:34 49° 286° (WNW) 23:46:40 145.865
QB50P1 18 Dec 23:52:44 23:56:33 33° 287° (WNW) 00:00:22 145.935-145.965
TIGRISAT 18 Dec 23:57:23 00:00:59 22° 290° (WNW) 00:04:37 435.000
ESTCUBE 1 18 Dec 23:59:38 00:02:25 16° 266° (W) 00:05:13 437.505/2401.250
M-CUBED/EXP-1 PRIME 19 Dec 00:11:39 00:14:21 15° 61° (ENE) 00:17:05 437.505
AIST 2 19 Dec 00:16:50 00:21:00 53° 245° (WSW) 00:25:05 435.215
POPSAT HIP 1 19 Dec 00:22:13 00:24:48 16° 292° (WNW) 00:27:23 437.405
BEESAT 3 19 Dec 00:22:57 00:25:37 17° 251° (WSW) 00:28:16 437.485
UNISAT 6 19 Dec 00:27:31 00:28:47 11° 295° (WNW) 00:30:03 437.425
ITUPSAT 1 19 Dec 00:31:52 00:36:11 34° 71° (ENE) 00:40:31 437.325
SWISSCUBE 19 Dec 00:32:08 00:36:33 38° 72° (ENE) 00:40:59 437.505
SPROUT 19 Dec 00:39:06 00:42:37 25° 263° (W) 00:46:09 437.525
O/OREOS (USA 219) 19 Dec 00:40:33 00:44:47 45° 105° (ESE) 00:49:02 437.305
TISAT 1 19 Dec 00:42:51 00:45:58 20° 264° (W) 00:49:06 437.305
BEESAT 19 Dec 00:57:11 01:01:55 67° 75° (ENE) 01:06:41 436.000
KKS-1 19 Dec 00:59:35 01:01:05 12° 66° (ENE) 01:02:35 437.445
PCSat 19 Dec 01:05:35 01:09:51 24° 254° (WSW) 01:14:05 145.827
Oscar 19 19 Dec 01:08:28 01:12:59 30° 97° (E) 01:17:28 437.125/150
AUBIESAT-1 19 Dec 01:19:54 01:24:37 73° 71° (ENE) 01:29:30 437.475
ITAMSAT 1 19 Dec 01:21:43 01:23:55 13° 93° (E) 01:26:06 435.822/435.867
YUBILEINY 19 Dec 01:31:16 01:39:00 35° 285° (WNW) 01:46:45 435.215
M-CUBED/EXP-1 PRIME 19 Dec 01:44:10 01:48:48 55° 256° (WSW) 01:53:37 437.505
ITUPSAT 1 19 Dec 02:10:36 02:14:05 20° 265° (W) 02:17:36 437.325
SWISSCUBE 19 Dec 02:11:17 02:14:29 18° 265° (W) 02:17:41 437.505
O/OREOS (USA 219) 19 Dec 02:22:07 02:24:24 14° 300° (WNW) 02:26:41 437.305
HORYU 2 19 Dec 02:25:09 02:25:50 10° 92° (E) 02:26:31 437.375
KKS-1 19 Dec 02:32:54 02:37:13 53° 260° (W) 02:41:33 437.445
STARS 19 Dec 02:33:19 02:37:41 82° 258° (WSW) 02:42:05 437.465
Gurwin Techsat 1B 19 Dec 02:42:23 02:47:36 55° 101° (E) 02:52:46 435.225
Oscar 19 19 Dec 02:47:51 02:52:09 27° 291° (WNW) 02:56:27 437.125/150
VERMONT LUNAR 19 Dec 02:49:21 02:52:32 32° 146° (SSE) 02:55:44 437.305
PHONESAT 2.4 19 Dec 02:54:20 02:57:13 23° 144° (SE) 03:00:07 2401.200-2431.200
ITAMSAT 1 19 Dec 02:58:38 03:03:43 59° 286° (WNW) 03:08:46 435.822/435.867
MOZHAYETS 4 19 Dec 03:30:18 03:33:04 16° 68° (ENE) 03:35:52
AIST 1 19 Dec 03:47:28 03:51:33 42° 81° (E) 03:55:35
HORYU 2 19 Dec 03:58:21 04:02:47 56° 286° (WNW) 04:07:11 437.375
AO-7 19 Dec 04:00:02 04:07:59 46° 101° (E) 04:15:51 29.400- 29.500
Gurwin Techsat 1B 19 Dec 04:24:01 04:27:02 16° 295° (WNW) 04:30:03 435.225
VERMONT LUNAR 19 Dec 04:27:23 04:30:48 46° 340° (NNW) 04:34:13 437.305
PHONESAT 2.4 19 Dec 04:32:07 04:35:43 63° 337° (NNW) 04:39:19 2401.200-2431.200
JAS-2 19 Dec 04:39:13 04:43:50 27° 95° (E) 04:48:12 435.910
PRISM 19 Dec 04:54:50 04:57:44 18° 69° (ENE) 05:00:39 437.425
MOZHAYETS 4 19 Dec 05:05:32 05:09:54 41° 261° (W) 05:14:19
AIST 1 19 Dec 05:27:33 05:28:43 11° 274° (W) 05:29:52
GONETS M04 19 Dec 05:28:15 05:36:42 53° 90° (E) 05:45:09
Cubesat XI-IV 19 Dec 05:40:37 05:44:35 21° 95° (E) 05:48:32 437.490
STRAND 1 19 Dec 05:51:08 05:55:43 35° 71° (ENE) 06:00:18 437.568
AO-7 19 Dec 05:53:08 06:00:28 36° 297° (WNW) 06:07:46 29.400- 29.500
VERMONT LUNAR 19 Dec 06:06:41 06:09:37 24° 357° (N) 06:12:34 437.305
PHONESAT 2.4 19 Dec 06:11:42 06:14:49 26° 354° (N) 06:17:56 2401.200-2431.200
CUTE-I 19 Dec 06:13:31 06:18:35 45° 100° (E) 06:23:39 437.470
SO-50 19 Dec 06:14:46 06:19:12 33° 55° (NE) 06:23:38 436.795
CUBESAT XI-V 19 Dec 06:23:10 06:27:52 87° 77° (ENE) 06:32:33 437.345
JAS-2 19 Dec 06:24:11 06:28:53 28° 292° (WNW) 06:33:18 435.910
PRISM 19 Dec 06:29:20 06:33:01 29° 262° (W) 06:36:44 437.425
Cubesat XI-IV 19 Dec 07:19:50 07:24:44 39° 289° (WNW) 07:29:37 437.490
GONETS M04 19 Dec 07:26:24 07:33:45 29° 287° (WNW) 07:41:09
STRAND 1 19 Dec 07:30:59 07:34:54 22° 264° (W) 07:38:50 437.568
VERMONT LUNAR 19 Dec 07:45:17 07:48:32 33° 14° (NNE) 07:51:47 437.305
PHONESAT 2.4 19 Dec 07:50:53 07:54:08 30° 11° (N) 07:57:23 2401.200-2431.200
CUTE-I 19 Dec 07:54:39 07:58:16 19° 294° (WNW) 08:01:52 437.470
SO-50 19 Dec 07:55:38 07:59:34 24° 250° (WSW) 08:03:28 436.795
BRITE-PL 19 Dec 08:28:46 08:32:55 29° 98° (E) 08:37:19 437.365/2234.400
CINEMA 3 19 Dec 08:40:29 08:40:45 10° 92° (E) 08:41:00 145.822/145.860
AAUSAT CUBESAT 2 19 Dec 08:49:58 08:53:26 24° 96° (E) 08:56:52 437.432
CANX-2 19 Dec 08:57:03 09:01:18 56° 100° (E) 09:05:31 2200.000
GOMX 1 19 Dec 09:03:23 09:08:02 49° 100° (E) 09:13:00 467.674
HO-68 19 Dec 09:11:38 09:18:47 73° 104° (ESE) 09:25:53 435.675
UWE-3 19 Dec 09:14:42 09:16:42 13° 93° (E) 09:18:43 435.000/436.395/437.385
TIGRISAT 19 Dec 09:16:42 09:19:15 16° 67° (ENE) 09:21:49 435.000
FUNcube-1 19 Dec 09:18:50 09:20:04 11° 92° (E) 09:21:18 145.935
COMPASS 1 19 Dec 09:23:27 09:27:44 76° 102° (ESE) 09:31:57 437.405
VERMONT LUNAR 19 Dec 09:23:30 09:26:59 59° 210° (SSW) 09:30:28 437.305
SEEDS 19 Dec 09:26:46 09:31:04 81° 283° (WNW) 09:35:20 437.485
CUTE 1.7 + AOD 2 19 Dec 09:28:04 09:32:22 66° 284° (WNW) 09:36:37 437.475
PHONESAT 2.4 19 Dec 09:29:26 09:33:05 85° 207° (SSW) 09:36:43 2401.200-2431.200
DX 1 19 Dec 09:33:55 09:37:40 28° 98° (E) 09:41:24 434.975-435.025
POPSAT HIP 1 19 Dec 09:35:42 09:38:17 16° 68° (ENE) 09:40:51 437.405
DOVE 4 19 Dec 09:36:11 09:41:01 82° 102° (ESE) 09:46:06 437.250
MaSat-1 19 Dec 09:40:38 09:42:11 15° 296° (WNW) 09:43:41 437.345
UNISAT 6 19 Dec 09:43:28 09:47:19 32° 72° (ENE) 09:51:16 437.425
DELFI C3 19 Dec 09:49:48 09:53:49 50° 100° (E) 09:57:48 145.870
YUBILEINY 19 Dec 09:51:21 09:56:14 16° 68° (ENE) 10:01:06 435.215
CUSAT 1 19 Dec 09:52:02 09:55:12 72° 96° (E) 09:59:22 437.405
50 SAT 19 Dec 09:54:22 09:55:49 12° 93° (E) 09:57:15 437.505
Oscar 11 19 Dec 09:58:47 10:03:10 82° 102° (ESE) 10:07:31 145.826/435.025
HUMSAT D 19 Dec 10:02:36 10:05:51 21° 95° (E) 10:09:06 437.325/437.525
DUCHIFAT 1 19 Dec 10:03:08 10:06:55 34° 73° (ENE) 10:10:43 145.980
UKube-1 19 Dec 10:06:17 10:10:37 70° 102° (ESE) 10:14:55 .
CUBEBUG 2 19 Dec 10:07:20 10:11:57 64° 101° (E) 10:16:39 437.445
BRITE-PL 19 Dec 10:07:26 10:11:16 25° 288° (WNW) 10:15:19 437.365/2234.400
BUGSAT 1 19 Dec 10:09:59 10:13:39 32° 73° (ENE) 10:17:17 437.445
CINEMA 3 19 Dec 10:13:28 10:18:12 66° 284° (WNW) 10:23:05 145.822/145.860
ANTELSAT 19 Dec 10:14:41 10:19:00 80° 77° (ENE) 10:23:26 437.575/2403.000
QB50P2 19 Dec 10:15:13 10:19:17 49° 75° (ENE) 10:23:22 145.880/145.840
ESTCUBE 1 19 Dec 10:21:07 10:22:10 11° 92° (E) 10:23:12 437.505/2401.250
VELOX 1 19 Dec 10:21:45 10:25:42 31° 98° (E) 10:29:37 145.980
POLYITAN 1 19 Dec 10:23:23 10:27:32 63° 76° (ENE) 10:31:43 437.675
ZACube-1 19 Dec 10:24:52 10:29:25 72° 101° (ESE) 10:33:59 437.345
AAUSAT CUBESAT 2 19 Dec 10:25:41 10:28:56 22° 290° (WNW) 10:32:09 437.432
NANOSAT C BR1 19 Dec 10:27:00 10:31:10 70° 76° (ENE) 10:35:22 145.865
CANX-2 19 Dec 10:35:58 10:36:41 10° 294° (WNW) 10:37:25 2200.000
DANDE 19 Dec 10:36:48 10:39:38 31° 286° (WNW) 10:43:13 436.750
QB50P1 19 Dec 10:41:06 10:45:18 77° 258° (WSW) 10:49:31 145.935-145.965
GOMX 1 19 Dec 10:43:03 10:45:48 15° 291° (WNW) 10:48:39 467.674
